contact:dominique.lefevre@mio.osupytheas.fr, maurice.libes@osupytheas.fr, didier.mallarino@osupytheas.fr
Project:EMSO http://www.emso-fr.org/EMSO-France
Depth: 2436.0 m
Title:EMSO Ligure Ouest : Data MII capteur MICROCAT
DateTime_Computer,Latitude,Longitude,Temperature,Conductivity,Pressure,DateTime_Instrument
DateTime_Computer,Latitude,Longitude,degC,S m-1,dbar,DateTime_Instrument
2021-06-05T00:00:43Z,42.805,6.029,13.2990,4.60006,2470.24,2021-6-05T02:01:55Z
2021-06-05T00:03:46Z,42.805,6.029,13.2995,4.60005,2470.287,2021-6-05T02:04:58Z
2021-06-05T00:06:49Z,42.805,6.029,13.2990,4.60003,2470.264,2021-6-05T02:08:02Z
2021-06-05T00:09:52Z,42.805,6.029,13.2993,4.60010,2470.25,2021-6-05T02:11:05Z
2021-06-05T00:12:55Z,42.805,6.029,13.2993,4.60005,2470.25,2021-6-05T02:14:08Z
2021-06-05T00:15:58Z,42.805,6.029,13.2991,4.60004,2470.25,2021-6-05T02:17:11Z
2021-06-05T00:19:01Z,42.805,6.029,13.2989,4.60011,2470.25,2021-6-05T02:20:14Z
2021-06-05T00:22:04Z,42.805,6.029,13.2993,4.60005,2470.25,2021-6-05T02:23:17Z
2021-06-05T00:25:08Z,42.805,6.029,13.2991,4.60009,2470.227,2021-6-05T02:26:20Z
2021-06-05T00:28:11Z,42.805,6.029,13.2995,4.60011,2470.24,2021-6-05T02:29:23Z
2021-06-05T00:31:14Z,42.805,6.029,13.2993,4.60015,2470.287,2021-6-05T02:32:26Z
2021-06-05T00:34:17Z,42.805,6.029,13.2989,4.60015,2470.273,2021-6-05T02:35:30Z
2021-06-05T00:37:20Z,42.805,6.029,13.2993,4.60011,2470.287,2021-6-05T02:38:33Z
2021-06-05T00:40:23Z,42.805,6.029,13.2991,4.60014,2470.287,2021-6-05T02:41:36Z
2021-06-05T00:43:26Z,42.805,6.029,13.2994,4.60007,2470.25,2021-6-05T02:44:39Z
2021-06-05T00:46:29Z,42.805,6.029,13.2989,4.60010,2470.264,2021-6-05T02:47:42Z
2021-06-05T00:49:32Z,42.805,6.029,13.2991,4.60011,2470.297,2021-6-05T02:50:45Z
2021-06-05T00:52:36Z,42.805,6.029,13.2991,4.60011,2470.287,2021-6-05T02:53:48Z
2021-06-05T00:55:39Z,42.805,6.029,13.2991,4.60007,2470.273,2021-6-05T02:56:51Z
2021-06-05T00:58:42Z,42.805,6.029,13.2993,4.60009,2470.31,2021-6-05T02:59:55Z
2021-06-05T01:01:45Z,42.805,6.029,13.2992,4.60007,2470.31,2021-6-05T03:02:58Z
2021-06-05T01:04:48Z,42.805,6.029,13.2993,4.60009,2470.297,2021-6-05T03:06:01Z
2021-06-05T01:07:51Z,42.805,6.029,13.2987,4.60013,2470.297,2021-6-05T03:09:04Z
2021-06-05T01:10:54Z,42.805,6.029,13.2990,4.60011,2470.297,2021-6-05T03:12:07Z
2021-06-05T01:13:57Z,42.805,6.029,13.2991,4.60014,2470.297,2021-6-05T03:15:10Z
2021-06-05T01:17:01Z,42.805,6.029,13.2990,4.60009,2470.334,2021-6-05T03:18:13Z
2021-06-05T01:20:04Z,42.805,6.029,13.2992,4.60007,2470.334,2021-6-05T03:21:16Z
2021-06-05T01:23:07Z,42.805,6.029,13.2994,4.60014,2470.31,2021-6-05T03:24:19Z
2021-06-05T01:26:10Z,42.805,6.029,13.2991,4.60019,2470.32,2021-6-05T03:27:23Z
2021-06-05T01:29:13Z,42.805,6.029,13.2990,4.60013,2470.334,2021-6-05T03:30:26Z
2021-06-05T01:32:16Z,42.805,6.029,13.2994,4.60021,2470.32,2021-6-05T03:33:29Z
2021-06-05T01:35:19Z,42.805,6.029,13.2996,4.60012,2470.334,2021-6-05T03:36:32Z
2021-06-05T01:38:22Z,42.805,6.029,13.2993,4.60004,2470.343,2021-6-05T03:39:35Z
2021-06-05T01:41:26Z,42.805,6.029,13.2993,4.60000,2470.334,2021-6-05T03:42:38Z
2021-06-05T01:44:29Z,42.805,6.029,13.2992,4.60002,2470.38,2021-6-05T03:45:41Z
2021-06-05T01:47:32Z,42.805,6.029,13.2989,4.60013,2470.343,2021-6-05T03:48:44Z
2021-06-05T01:50:35Z,42.805,6.029,13.2993,4.60012,2470.357,2021-6-05T03:51:48Z
2021-06-05T01:53:38Z,42.805,6.029,13.2992,4.60007,2470.334,2021-6-05T03:54:51Z
2021-06-05T01:56:41Z,42.805,6.029,13.2991,4.60010,2470.38,2021-6-05T03:57:54Z
2021-06-05T01:59:44Z,42.805,6.029,13.2992,4.60002,2470.32,2021-6-05T04:00:57Z
2021-06-05T02:02:47Z,42.805,6.029,13.2992,4.60000,2470.343,2021-6-05T04:04:00Z
2021-06-05T02:05:50Z,42.805,6.029,13.2991,4.60000,2470.357,2021-6-05T04:07:03Z
2021-06-05T02:08:54Z,42.805,6.029,13.2990,4.60009,2470.38,2021-6-05T04:10:06Z
2021-06-05T02:11:57Z,42.805,6.029,13.2990,4.60011,2470.366,2021-6-05T04:13:09Z
2021-06-05T02:15:00Z,42.805,6.029,13.2994,4.60014,2470.343,2021-6-05T04:16:12Z
2021-06-05T02:18:03Z,42.805,6.029,13.2992,4.60006,2470.366,2021-6-05T04:19:16Z
2021-06-05T02:21:06Z,42.805,6.029,13.2990,4.60002,2470.366,2021-6-05T04:22:19Z
2021-06-05T02:24:09Z,42.805,6.029,13.2995,4.60004,2470.366,2021-6-05T04:25:22Z
2021-06-05T02:27:12Z,42.805,6.029,13.2992,4.60002,2470.366,2021-6-05T04:28:25Z
2021-06-05T02:30:15Z,42.805,6.029,13.2991,4.60007,2470.366,2021-6-05T04:31:28Z
2021-06-05T02:33:19Z,42.805,6.029,13.2991,4.60004,2470.366,2021-6-05T04:34:31Z
2021-06-05T02:36:22Z,42.805,6.029,13.2994,4.60008,2470.39,2021-6-05T04:37:34Z
2021-06-05T02:39:25Z,42.805,6.029,13.2995,4.60008,2470.404,2021-6-05T04:40:37Z
2021-06-05T02:42:28Z,42.805,6.029,13.2995,4.60021,2470.404,2021-6-05T04:43:41Z
2021-06-05T02:45:31Z,42.805,6.029,13.2990,4.60011,2470.343,2021-6-05T04:46:44Z
2021-06-05T02:48:34Z,42.805,6.029,13.2991,4.60012,2470.39,2021-6-05T04:49:47Z
2021-06-05T02:51:37Z,42.805,6.029,13.3000,4.60033,2470.39,2021-6-05T04:52:50Z
2021-06-05T02:54:40Z,42.805,6.029,13.2993,4.60040,2470.39,2021-6-05T04:55:53Z
2021-06-05T02:57:43Z,42.805,6.029,13.3001,4.60013,2470.39,2021-6-05T04:58:56Z
2021-06-05T03:00:47Z,42.805,6.029,13.2997,4.60016,2470.413,2021-6-05T05:01:59Z
2021-06-05T03:03:50Z,42.805,6.029,13.3002,4.60019,2470.39,2021-6-05T05:05:02Z
2021-06-05T03:06:53Z,42.805,6.029,13.3005,4.60009,2470.38,2021-6-05T05:08:06Z
2021-06-05T03:09:56Z,42.805,6.029,13.2998,4.60012,2470.404,2021-6-05T05:11:09Z
2021-06-05T03:12:59Z,42.805,6.029,13.2995,4.60013,2470.38,2021-6-05T05:14:12Z
2021-06-05T03:16:02Z,42.805,6.029,13.2993,4.60028,2470.39,2021-6-05T05:17:15Z
2021-06-05T03:19:05Z,42.805,6.029,13.2998,4.60029,2470.39,2021-6-05T05:20:18Z
2021-06-05T03:22:08Z,42.805,6.029,13.3002,4.60025,2470.39,2021-6-05T05:23:21Z
2021-06-05T03:25:11Z,42.805,6.029,13.2998,4.60026,2470.39,2021-6-05T05:26:24Z
2021-06-05T03:28:15Z,42.805,6.029,13.3007,4.60021,2470.427,2021-6-05T05:29:27Z
2021-06-05T03:31:18Z,42.805,6.029,13.3008,4.60040,2470.404,2021-6-05T05:32:30Z
2021-06-05T03:34:21Z,42.805,6.029,13.3009,4.60033,2470.404,2021-6-05T05:35:34Z
2021-06-05T03:37:24Z,42.805,6.029,13.3005,4.60031,2470.413,2021-6-05T05:38:37Z
2021-06-05T03:40:27Z,42.805,6.029,13.3011,4.60039,2470.366,2021-6-05T05:41:40Z
2021-06-05T03:43:30Z,42.805,6.029,13.3011,4.60040,2470.413,2021-6-05T05:44:43Z
2021-06-05T03:46:33Z,42.805,6.029,13.2997,4.60051,2470.427,2021-6-05T05:47:46Z
2021-06-05T03:49:36Z,42.805,6.029,13.2999,4.60046,2470.413,2021-6-05T05:50:49Z
2021-06-05T03:52:40Z,42.805,6.029,13.3000,4.60056,2470.427,2021-6-05T05:53:52Z
2021-06-05T03:55:43Z,42.805,6.029,13.3004,4.60079,2470.427,2021-6-05T05:56:55Z
2021-06-05T03:58:46Z,42.805,6.029,13.3007,4.60098,2470.404,2021-6-05T05:59:59Z
2021-06-05T04:01:49Z,42.805,6.029,13.3018,4.60091,2470.427,2021-6-05T06:03:02Z
2021-06-05T04:04:52Z,42.805,6.029,13.3026,4.60071,2470.404,2021-6-05T06:06:05Z
2021-06-05T04:07:55Z,42.805,6.029,13.3033,4.60059,2470.404,2021-6-05T06:09:08Z
2021-06-05T04:10:58Z,42.805,6.029,13.3045,4.60049,2470.427,2021-6-05T06:12:11Z
2021-06-05T04:14:01Z,42.805,6.029,13.3054,4.60057,2470.413,2021-6-05T06:15:14Z
2021-06-05T04:17:04Z,42.805,6.029,13.3055,4.60052,2470.404,2021-6-05T06:18:17Z
2021-06-05T04:20:08Z,42.805,6.029,13.3058,4.60054,2470.427,2021-6-05T06:21:20Z
2021-06-05T04:23:11Z,42.805,6.029,13.3053,4.60062,2470.366,2021-6-05T06:24:23Z
2021-06-05T04:26:14Z,42.805,6.029,13.3061,4.60087,2470.413,2021-6-05T06:27:27Z
2021-06-05T04:29:17Z,42.805,6.029,13.3060,4.60096,2470.441,2021-6-05T06:30:30Z
2021-06-05T04:32:20Z,42.805,6.029,13.3054,4.60084,2470.366,2021-6-05T06:33:33Z
2021-06-05T04:35:23Z,42.805,6.029,13.3053,4.60087,2470.404,2021-6-05T06:36:36Z
2021-06-05T04:38:26Z,42.805,6.029,13.3048,4.60076,2470.45,2021-6-05T06:39:39Z
2021-06-05T04:41:29Z,42.805,6.029,13.3054,4.60062,2470.39,2021-6-05T06:42:42Z
2021-06-05T04:44:33Z,42.805,6.029,13.3055,4.60043,2470.39,2021-6-05T06:45:45Z
2021-06-05T04:47:36Z,42.805,6.029,13.3056,4.60044,2470.404,2021-6-05T06:48:48Z
2021-06-05T04:50:39Z,42.805,6.029,13.3050,4.60033,2470.404,2021-6-05T06:51:52Z
2021-06-05T04:53:42Z,42.805,6.029,13.3046,4.60029,2470.413,2021-6-05T06:54:55Z
2021-06-05T04:56:45Z,42.805,6.029,13.3034,4.60032,2470.39,2021-6-05T06:57:58Z
2021-06-05T04:59:48Z,42.805,6.029,13.3029,4.60024,2470.404,2021-6-05T07:01:01Z
2021-06-05T05:02:51Z,42.805,6.029,13.3039,4.60029,2470.39,2021-6-05T07:04:04Z
2021-06-05T05:05:54Z,42.805,6.029,13.3055,4.60042,2470.404,2021-6-05T07:07:07Z
2021-06-05T05:08:58Z,42.805,6.029,13.3058,4.60056,2470.417,2021-6-05T07:10:10Z
2021-06-05T05:12:01Z,42.805,6.029,13.3062,4.60054,2470.413,2021-6-05T07:13:13Z
2021-06-05T05:15:04Z,42.805,6.029,13.3052,4.60037,2470.39,2021-6-05T07:16:16Z
2021-06-05T05:18:07Z,42.805,6.029,13.3054,4.60040,2470.404,2021-6-05T07:19:20Z
2021-06-05T05:21:10Z,42.805,6.029,13.3062,4.60031,2470.413,2021-6-05T07:22:23Z
2021-06-05T05:24:13Z,42.805,6.029,13.3063,4.60031,2470.39,2021-6-05T07:25:26Z
2021-06-05T05:27:16Z,42.805,6.029,13.3070,4.60049,2470.413,2021-6-05T07:28:29Z
2021-06-05T05:30:19Z,42.805,6.029,13.3082,4.60046,2470.404,2021-6-05T07:31:32Z
2021-06-05T05:33:22Z,42.805,6.029,13.3070,4.60029,2470.404,2021-6-05T07:34:35Z
2021-06-05T05:36:26Z,42.805,6.029,13.3060,4.60028,2470.413,2021-6-05T07:37:38Z
2021-06-05T05:39:29Z,42.805,6.029,13.3059,4.60048,2470.427,2021-6-05T07:40:41Z
2021-06-05T05:42:32Z,42.805,6.029,13.3054,4.60029,2470.404,2021-6-05T07:43:45Z
2021-06-05T05:45:35Z,42.805,6.029,13.3058,4.60047,2470.404,2021-6-05T07:46:48Z
2021-06-05T05:48:38Z,42.805,6.029,13.3063,4.60046,2470.427,2021-6-05T07:49:51Z
2021-06-05T05:51:41Z,42.805,6.029,13.3067,4.60047,2470.404,2021-6-05T07:52:54Z
2021-06-05T05:54:44Z,42.805,6.029,13.3070,4.60050,2470.427,2021-6-05T07:55:57Z
2021-06-05T05:57:47Z,42.805,6.029,13.3063,4.60044,2470.404,2021-6-05T07:59:00Z
2021-06-05T06:00:51Z,42.805,6.029,13.3073,4.60049,2470.413,2021-6-05T08:02:03Z
2021-06-05T06:03:54Z,42.805,6.029,13.3067,4.60067,2470.39,2021-6-05T08:05:06Z
2021-06-05T06:06:57Z,42.805,6.029,13.3068,4.60032,2470.404,2021-6-05T08:08:09Z
2021-06-05T06:10:00Z,42.805,6.029,13.3067,4.60026,2470.39,2021-6-05T08:11:13Z
2021-06-05T06:13:03Z,42.805,6.029,13.3067,4.60064,2470.413,2021-6-05T08:14:16Z
2021-06-05T06:16:06Z,42.805,6.029,13.3076,4.60044,2470.437,2021-6-05T08:17:19Z
2021-06-05T06:19:09Z,42.805,6.029,13.3068,4.60038,2470.404,2021-6-05T08:20:22Z
2021-06-05T06:22:12Z,42.805,6.029,13.3063,4.60023,2470.38,2021-6-05T08:23:25Z
2021-06-05T06:25:15Z,42.805,6.029,13.3077,4.60035,2470.366,2021-6-05T08:26:28Z
2021-06-05T06:28:19Z,42.805,6.029,13.3060,4.60079,2470.357,2021-6-05T08:29:31Z
2021-06-05T06:31:22Z,42.805,6.029,13.3064,4.60072,2470.366,2021-6-05T08:32:34Z
2021-06-05T06:34:25Z,42.805,6.029,13.3068,4.60062,2470.404,2021-6-05T08:35:38Z
2021-06-05T06:37:28Z,42.805,6.029,13.3061,4.60035,2470.366,2021-6-05T08:38:41Z
2021-06-05T06:40:31Z,42.805,6.029,13.3056,4.60026,2470.366,2021-6-05T08:41:44Z
2021-06-05T06:43:34Z,42.805,6.029,13.3086,4.60040,2470.334,2021-6-05T08:44:47Z
2021-06-05T06:46:37Z,42.805,6.029,13.3066,4.60072,2470.39,2021-6-05T08:47:50Z
2021-06-05T06:49:40Z,42.805,6.029,13.3064,4.60040,2470.366,2021-6-05T08:50:53Z
2021-06-05T06:52:44Z,42.805,6.029,13.3052,4.60052,2470.366,2021-6-05T08:53:56Z
2021-06-05T06:55:47Z,42.805,6.029,13.3053,4.60053,2470.38,2021-6-05T08:56:59Z
2021-06-05T06:58:50Z,42.805,6.029,13.3059,4.60040,2470.404,2021-6-05T09:00:03Z
2021-06-05T07:01:53Z,42.805,6.029,13.3061,4.60033,2470.38,2021-6-05T09:03:06Z
2021-06-05T07:04:56Z,42.805,6.029,13.3054,4.60053,2470.404,2021-6-05T09:06:09Z
2021-06-05T07:07:59Z,42.805,6.029,13.3056,4.60054,2470.366,2021-6-05T09:09:12Z
2021-06-05T07:11:02Z,42.805,6.029,13.3061,4.60031,2470.357,2021-6-05T09:12:15Z
2021-06-05T07:14:05Z,42.805,6.029,13.3073,4.60043,2470.366,2021-6-05T09:15:18Z
2021-06-05T07:17:09Z,42.805,6.029,13.3061,4.60058,2470.357,2021-6-05T09:18:21Z
2021-06-05T07:20:12Z,42.805,6.029,13.3065,4.60057,2470.343,2021-6-05T09:21:24Z
2021-06-05T07:23:15Z,42.805,6.029,13.3069,4.60066,2470.357,2021-6-05T09:24:27Z
2021-06-05T07:26:18Z,42.805,6.029,13.3071,4.60036,2470.357,2021-6-05T09:27:31Z
2021-06-05T07:29:21Z,42.805,6.029,13.3070,4.60039,2470.334,2021-6-05T09:30:34Z
2021-06-05T07:32:24Z,42.805,6.029,13.3076,4.60040,2470.343,2021-6-05T09:33:37Z
2021-06-05T07:35:27Z,42.805,6.029,13.3067,4.60033,2470.357,2021-6-05T09:36:40Z
2021-06-05T07:38:30Z,42.805,6.029,13.3069,4.60069,2470.357,2021-6-05T09:39:43Z
2021-06-05T07:41:33Z,42.805,6.029,13.3073,4.60044,2470.357,2021-6-05T09:42:46Z
2021-06-05T07:44:37Z,42.805,6.029,13.3044,4.60049,2470.33,2021-6-05T09:45:49Z
2021-06-05T07:47:40Z,42.805,6.029,13.3065,4.60071,2470.343,2021-6-05T09:48:52Z
2021-06-05T07:50:43Z,42.805,6.029,13.3066,4.60064,2470.334,2021-6-05T09:51:56Z
2021-06-05T07:53:46Z,42.805,6.029,13.3069,4.60049,2470.343,2021-6-05T09:54:59Z
2021-06-05T07:56:49Z,42.805,6.029,13.3070,4.60059,2470.343,2021-6-05T09:58:02Z
2021-06-05T07:59:52Z,42.805,6.029,13.3068,4.60036,2470.38,2021-6-05T10:01:05Z
2021-06-05T08:02:55Z,42.805,6.029,13.3068,4.60043,2470.334,2021-6-05T10:04:08Z
2021-06-05T08:05:58Z,42.805,6.029,13.3077,4.60036,2470.334,2021-6-05T10:07:11Z
2021-06-05T08:09:02Z,42.805,6.029,13.3071,4.60055,2470.343,2021-6-05T10:10:14Z
2021-06-05T08:12:05Z,42.805,6.029,13.3066,4.60042,2470.334,2021-6-05T10:13:17Z
2021-06-05T08:15:08Z,42.805,6.029,13.3063,4.60059,2470.32,2021-6-05T10:16:21Z
2021-06-05T08:18:11Z,42.805,6.029,13.3070,4.60046,2470.38,2021-6-05T10:19:24Z
2021-06-05T08:21:14Z,42.805,6.029,13.3071,4.60043,2470.357,2021-6-05T10:22:27Z
2021-06-05T08:24:17Z,42.805,6.029,13.3073,4.60036,2470.334,2021-6-05T10:25:30Z
2021-06-05T08:27:20Z,42.805,6.029,13.3081,4.60046,2470.32,2021-6-05T10:28:33Z
2021-06-05T08:30:23Z,42.805,6.029,13.3077,4.60036,2470.32,2021-6-05T10:31:36Z
2021-06-05T08:33:27Z,42.805,6.029,13.3071,4.60062,2470.31,2021-6-05T10:34:39Z
2021-06-05T08:36:30Z,42.805,6.029,13.3063,4.60046,2470.334,2021-6-05T10:37:42Z
2021-06-05T08:39:33Z,42.805,6.029,13.3069,4.60050,2470.31,2021-6-05T10:40:45Z
2021-06-05T08:42:36Z,42.805,6.029,13.3063,4.60069,2470.334,2021-6-05T10:43:49Z
2021-06-05T08:45:39Z,42.805,6.029,13.3064,4.60062,2470.347,2021-6-05T10:46:52Z
2021-06-05T08:48:42Z,42.805,6.029,13.3083,4.60055,2470.287,2021-6-05T10:49:55Z
2021-06-05T08:51:45Z,42.805,6.029,13.3012,4.60078,2470.32,2021-6-05T10:52:58Z
2021-06-05T08:54:48Z,42.805,6.029,13.3024,4.60083,2470.297,2021-6-05T10:56:01Z
2021-06-05T08:57:52Z,42.805,6.029,13.3040,4.60057,2470.334,2021-6-05T10:59:04Z
2021-06-05T09:00:55Z,42.805,6.029,13.3101,4.60052,2470.32,2021-6-05T11:02:07Z
2021-06-05T09:03:58Z,42.805,6.029,13.3085,4.60096,2470.297,2021-6-05T11:05:10Z
2021-06-05T09:07:01Z,42.805,6.029,13.3067,4.60076,2470.31,2021-6-05T11:08:14Z
2021-06-05T09:10:04Z,42.805,6.029,13.3070,4.60051,2470.32,2021-6-05T11:11:17Z
2021-06-05T09:13:07Z,42.805,6.029,13.3057,4.60064,2470.297,2021-6-05T11:14:20Z
2021-06-05T09:16:10Z,42.805,6.029,13.3056,4.60040,2470.31,2021-6-05T11:17:23Z
2021-06-05T09:19:13Z,42.805,6.029,13.3041,4.60045,2470.334,2021-6-05T11:20:26Z
2021-06-05T09:22:16Z,42.805,6.029,13.3000,4.60054,2470.31,2021-6-05T11:23:29Z
2021-06-05T09:25:20Z,42.805,6.029,13.3032,4.60068,2470.31,2021-6-05T11:26:32Z
2021-06-05T09:28:23Z,42.805,6.029,13.3026,4.60044,2470.31,2021-6-05T11:29:35Z
2021-06-05T09:31:26Z,42.805,6.029,13.3036,4.60031,2470.31,2021-6-05T11:32:39Z
2021-06-05T09:34:29Z,42.805,6.029,13.3021,4.60033,2470.31,2021-6-05T11:35:42Z
2021-06-05T09:37:32Z,42.805,6.029,13.3057,4.60036,2470.32,2021-6-05T11:38:45Z
2021-06-05T09:40:35Z,42.805,6.029,13.3047,4.60061,2470.287,2021-6-05T11:41:48Z
2021-06-05T09:43:38Z,42.805,6.029,13.3045,4.60054,2470.273,2021-6-05T11:44:51Z
2021-06-05T09:46:41Z,42.805,6.029,13.3046,4.60064,2470.297,2021-6-05T11:47:54Z
2021-06-05T09:49:45Z,42.805,6.029,13.3068,4.60051,2470.264,2021-6-05T11:50:57Z
2021-06-05T09:52:48Z,42.805,6.029,13.3054,4.60033,2470.334,2021-6-05T11:54:00Z
2021-06-05T09:55:51Z,42.805,6.029,13.3038,4.60050,2470.287,2021-6-05T11:57:04Z
2021-06-05T09:58:54Z,42.805,6.029,13.3012,4.60069,2470.297,2021-6-05T12:00:07Z
2021-06-05T10:01:57Z,42.805,6.029,13.3043,4.60049,2470.287,2021-6-05T12:03:10Z
2021-06-05T10:05:00Z,42.805,6.029,13.3048,4.60036,2470.283,2021-6-05T12:06:13Z
2021-06-05T10:08:03Z,42.805,6.029,13.3010,4.60051,2470.287,2021-6-05T12:09:16Z
2021-06-05T10:11:06Z,42.805,6.029,13.3075,4.60057,2470.334,2021-6-05T12:12:19Z
2021-06-05T10:14:10Z,42.805,6.029,13.3014,4.60044,2470.287,2021-6-05T12:15:22Z
2021-06-05T10:17:13Z,42.805,6.029,13.2999,4.60044,2470.297,2021-6-05T12:18:25Z
2021-06-05T10:20:16Z,42.805,6.029,13.2996,4.60038,2470.287,2021-6-05T12:21:29Z
2021-06-05T10:23:19Z,42.805,6.029,13.2990,4.60040,2470.31,2021-6-05T12:24:32Z
2021-06-05T10:26:22Z,42.805,6.029,13.2991,4.60041,2470.273,2021-6-05T12:27:35Z
2021-06-05T10:29:25Z,42.805,6.029,13.2998,4.60036,2470.287,2021-6-05T12:30:38Z
2021-06-05T10:32:28Z,42.805,6.029,13.2992,4.60031,2470.297,2021-6-05T12:33:41Z
2021-06-05T10:35:31Z,42.805,6.029,13.2993,4.60029,2470.297,2021-6-05T12:36:44Z
2021-06-05T10:38:35Z,42.805,6.029,13.2993,4.60017,2470.287,2021-6-05T12:39:47Z
2021-06-05T10:41:38Z,42.805,6.029,13.2990,4.60013,2470.31,2021-6-05T12:42:50Z
2021-06-05T11:03:08Z,42.805,6.029,13.2991,4.60023,2470.297,2021-6-05T13:04:21Z
2021-06-05T11:06:12Z,42.805,6.029,13.2996,4.60023,2470.273,2021-6-05T13:07:24Z
2021-06-05T11:09:15Z,42.805,6.029,13.2993,4.60021,2470.26,2021-6-05T13:10:27Z
2021-06-05T11:12:18Z,42.805,6.029,13.2993,4.60017,2470.31,2021-6-05T13:13:31Z
2021-06-05T11:15:21Z,42.805,6.029,13.2992,4.60019,2470.273,2021-6-05T13:16:34Z
2021-06-05T11:18:24Z,42.805,6.029,13.2992,4.60016,2470.334,2021-6-05T13:19:37Z
2021-06-05T11:21:27Z,42.805,6.029,13.2995,4.60017,2470.31,2021-6-05T13:22:40Z
2021-06-05T11:24:30Z,42.805,6.029,13.2991,4.60020,2470.297,2021-6-05T13:25:43Z
2021-06-05T11:27:33Z,42.805,6.029,13.2993,4.60020,2470.297,2021-6-05T13:28:46Z
2021-06-05T11:30:37Z,42.805,6.029,13.2991,4.60014,2470.297,2021-6-05T13:31:49Z
2021-06-05T11:33:40Z,42.805,6.029,13.2990,4.60015,2470.31,2021-6-05T13:34:52Z
2021-06-05T11:36:43Z,42.805,6.029,13.2991,4.60019,2470.297,2021-6-05T13:37:56Z
2021-06-05T11:39:46Z,42.805,6.029,13.2990,4.60014,2470.273,2021-6-05T13:40:59Z
2021-06-05T11:42:49Z,42.805,6.029,13.2990,4.60016,2470.287,2021-6-05T13:44:02Z
2021-06-05T11:45:52Z,42.805,6.029,13.2988,4.60011,2470.273,2021-6-05T13:47:05Z
2021-06-05T11:48:55Z,42.805,6.029,13.2995,4.60008,2470.287,2021-6-05T13:50:08Z
2021-06-05T11:51:58Z,42.805,6.029,13.2994,4.60009,2470.287,2021-6-05T13:53:11Z
2021-06-05T11:55:02Z,42.805,6.029,13.2996,4.60009,2470.273,2021-6-05T13:56:14Z
2021-06-05T11:58:05Z,42.805,6.029,13.2991,4.60011,2470.297,2021-6-05T13:59:17Z
2021-06-05T12:01:08Z,42.805,6.029,13.2991,4.60016,2470.287,2021-6-05T14:02:21Z
2021-06-05T12:04:11Z,42.805,6.029,13.2994,4.60009,2470.297,2021-6-05T14:05:24Z
2021-06-05T12:07:14Z,42.805,6.029,13.2992,4.60011,2470.297,2021-6-05T14:08:27Z
2021-06-05T12:10:17Z,42.805,6.029,13.2992,4.60010,2470.297,2021-6-05T14:11:30Z
2021-06-05T12:13:20Z,42.805,6.029,13.2996,4.60013,2470.273,2021-6-05T14:14:33Z
2021-06-05T12:16:23Z,42.805,6.029,13.2993,4.60008,2470.297,2021-6-05T14:17:36Z
2021-06-05T12:19:27Z,42.805,6.029,13.2992,4.60007,2470.297,2021-6-05T14:20:39Z
2021-06-05T12:22:30Z,42.805,6.029,13.2992,4.60005,2470.297,2021-6-05T14:23:42Z
2021-06-05T12:25:33Z,42.805,6.029,13.2997,4.60005,2470.31,2021-6-05T14:26:45Z
2021-06-05T12:28:36Z,42.805,6.029,13.2991,4.60005,2470.334,2021-6-05T14:29:49Z
2021-06-05T12:31:39Z,42.805,6.029,13.2995,4.60009,2470.297,2021-6-05T14:32:52Z
2021-06-05T12:34:42Z,42.805,6.029,13.2990,4.60006,2470.334,2021-6-05T14:35:55Z
2021-06-05T12:37:45Z,42.805,6.029,13.2990,4.60004,2470.32,2021-6-05T14:38:58Z
2021-06-05T12:40:48Z,42.805,6.029,13.2995,4.60009,2470.357,2021-6-05T14:42:01Z
2021-06-05T12:43:52Z,42.805,6.029,13.2993,4.60005,2470.297,2021-6-05T14:45:04Z
2021-06-05T12:46:55Z,42.805,6.029,13.2991,4.60006,2470.297,2021-6-05T14:48:07Z
2021-06-05T12:49:58Z,42.805,6.029,13.2992,4.60016,2470.273,2021-6-05T14:51:10Z
2021-06-05T12:53:01Z,42.805,6.029,13.2990,4.60006,2470.297,2021-6-05T14:54:14Z
2021-06-05T12:56:04Z,42.805,6.029,13.2993,4.60006,2470.32,2021-6-05T14:57:17Z
2021-06-05T12:59:07Z,42.805,6.029,13.2993,4.60009,2470.297,2021-6-05T15:00:20Z
2021-06-05T13:02:10Z,42.805,6.029,13.2991,4.60004,2470.32,2021-6-05T15:03:23Z
2021-06-05T13:05:13Z,42.805,6.029,13.2989,4.60005,2470.32,2021-6-05T15:06:26Z
2021-06-05T13:08:16Z,42.805,6.029,13.2992,4.60011,2470.297,2021-6-05T15:09:29Z
2021-06-05T13:11:20Z,42.805,6.029,13.2993,4.60009,2470.32,2021-6-05T15:12:32Z
2021-06-05T13:14:23Z,42.805,6.029,13.2993,4.60003,2470.334,2021-6-05T15:15:35Z
2021-06-05T13:17:26Z,42.805,6.029,13.2993,4.60005,2470.334,2021-6-05T15:18:39Z
2021-06-05T13:20:29Z,42.805,6.029,13.2991,4.60003,2470.343,2021-6-05T15:21:42Z
2021-06-05T13:23:32Z,42.805,6.029,13.2992,4.60011,2470.31,2021-6-05T15:24:45Z
2021-06-05T13:26:35Z,42.805,6.029,13.2995,4.60007,2470.273,2021-6-05T15:27:48Z
2021-06-05T13:29:38Z,42.805,6.029,13.2992,4.60003,2470.343,2021-6-05T15:30:51Z
2021-06-05T13:32:41Z,42.805,6.029,13.2993,4.60006,2470.366,2021-6-05T15:33:54Z
2021-06-05T13:35:45Z,42.805,6.029,13.2986,4.60009,2470.32,2021-6-05T15:36:57Z
2021-06-05T13:38:48Z,42.805,6.029,13.2987,4.60007,2470.343,2021-6-05T15:40:00Z
2021-06-05T13:41:51Z,42.805,6.029,13.2991,4.60005,2470.39,2021-6-05T15:43:04Z
2021-06-05T13:44:54Z,42.805,6.029,13.2991,4.60004,2470.366,2021-6-05T15:46:07Z
2021-06-05T13:47:57Z,42.805,6.029,13.2992,4.60006,2470.343,2021-6-05T15:49:10Z
2021-06-05T13:51:00Z,42.805,6.029,13.2991,4.60010,2470.366,2021-6-05T15:52:13Z
2021-06-05T13:54:03Z,42.805,6.029,13.2990,4.60006,2470.366,2021-6-05T15:55:16Z
2021-06-05T13:57:06Z,42.805,6.029,13.2994,4.60008,2470.366,2021-6-05T15:58:19Z
2021-06-05T14:00:10Z,42.805,6.029,13.2990,4.60009,2470.343,2021-6-05T16:01:22Z
2021-06-05T14:03:13Z,42.805,6.029,13.2994,4.60003,2470.357,2021-6-05T16:04:25Z
2021-06-05T14:06:16Z,42.805,6.029,13.2996,4.60004,2470.343,2021-6-05T16:07:29Z
2021-06-05T14:09:19Z,42.805,6.029,13.2991,4.60005,2470.343,2021-6-05T16:10:32Z
2021-06-05T14:12:22Z,42.805,6.029,13.2991,4.60003,2470.357,2021-6-05T16:13:35Z
2021-06-05T14:15:25Z,42.805,6.029,13.2991,4.60004,2470.413,2021-6-05T16:16:38Z
2021-06-05T14:18:28Z,42.805,6.029,13.2992,4.60005,2470.366,2021-6-05T16:19:41Z
2021-06-05T14:21:31Z,42.805,6.029,13.2992,4.60005,2470.366,2021-6-05T16:22:44Z
2021-06-05T14:24:35Z,42.805,6.029,13.2994,4.60006,2470.366,2021-6-05T16:25:47Z
2021-06-05T14:27:38Z,42.805,6.029,13.2992,4.60008,2470.366,2021-6-05T16:28:50Z
2021-06-05T14:30:41Z,42.805,6.029,13.2991,4.60009,2470.39,2021-6-05T16:31:54Z
2021-06-05T14:33:44Z,42.805,6.029,13.2990,4.60004,2470.404,2021-6-05T16:34:57Z
2021-06-05T14:36:47Z,42.805,6.029,13.2992,4.60004,2470.366,2021-6-05T16:38:00Z
2021-06-05T14:39:50Z,42.805,6.029,13.2991,4.60011,2470.404,2021-6-05T16:41:03Z
2021-06-05T14:42:53Z,42.805,6.029,13.2990,4.60004,2470.39,2021-6-05T16:44:06Z
2021-06-05T14:45:56Z,42.805,6.029,13.2991,4.60003,2470.404,2021-6-05T16:47:09Z
2021-06-05T14:49:00Z,42.805,6.029,13.2992,4.60003,2470.376,2021-6-05T16:50:12Z
2021-06-05T14:52:03Z,42.805,6.029,13.2989,4.60005,2470.38,2021-6-05T16:53:15Z
2021-06-05T14:55:06Z,42.805,6.029,13.2992,4.60003,2470.39,2021-6-05T16:56:19Z
2021-06-05T14:58:09Z,42.805,6.029,13.2991,4.60003,2470.404,2021-6-05T16:59:22Z
2021-06-05T15:01:12Z,42.805,6.029,13.2993,4.60002,2470.427,2021-6-05T17:02:25Z
2021-06-05T15:04:15Z,42.805,6.029,13.2991,4.60007,2470.404,2021-6-05T17:05:28Z
2021-06-05T15:07:18Z,42.805,6.029,13.2989,4.60005,2470.404,2021-6-05T17:08:31Z
2021-06-05T15:10:21Z,42.805,6.029,13.2991,4.60003,2470.366,2021-6-05T17:11:34Z
2021-06-05T15:13:25Z,42.805,6.029,13.2990,4.60003,2470.413,2021-6-05T17:14:37Z
2021-06-05T15:16:28Z,42.805,6.029,13.2990,4.60008,2470.38,2021-6-05T17:17:40Z
2021-06-05T15:19:31Z,42.805,6.029,13.2991,4.60005,2470.366,2021-6-05T17:20:44Z
2021-06-05T15:22:34Z,42.805,6.029,13.2991,4.60009,2470.45,2021-6-05T17:23:47Z
2021-06-05T15:25:37Z,42.805,6.029,13.2991,4.60005,2470.427,2021-6-05T17:26:50Z
2021-06-05T15:28:40Z,42.805,6.029,13.2991,4.60005,2470.404,2021-6-05T17:29:53Z